Location: Saint-Palais-sur-Mer
(45.6429°N, 1.0859°W)
Time: 23:58:59
(UTC+01:00)

Tiros 1 despin weight - Pass Details

Date: 13 February 2026
Orbit: 556 x 593 km, 48.2° (Epoch: 13 March)

Event Time Altitude Azimuth Distance (km) Brightness Sun altitude
Enters shadow 22:55:09 - 289° (WNW) 2,749 ? -45.6°
Rises 22:55:11 0° 289° (WNW) 2,739 - -45.6°
Reaches altitude 10° 22:57:27 10° 285° (WNW) 1,846 - -45.9°
Maximum altitude 23:01:34 56° 207° (SSW) 671 - -46.5°
Drops below altitude 10° 23:05:44 10° 130° (SE) 1,857 - -47.1°
Sets 23:08:01 0° 126° (SE) 2,758 - -47.4°
